Time,TemperatureF,DewpointF,PressureIn,WindDirection,WindDirectionDegrees,WindSpeedMPH,WindSpeedGustMPH,Humidity,HourlyPrecipIn,Conditions,Clouds,dailyrainin,SolarRadiationWatts/m^2,SoftwareType,DateUTC
2014-09-22 00:03:00,65.0,48.0,-100.00,NW,319,10.0,17.0,55,0.00,,,0.00,0.000000,,2014-09-22 07:03:00,
2014-09-22 00:12:00,65.0,48.0,-100.00,NW,319,10.0,17.0,55,0.00,,,0.00,0.000000,,2014-09-22 07:12:00,
2014-09-22 00:22:00,65.0,48.0,-100.00,NW,319,10.0,17.0,55,0.00,,,0.00,0.000000,,2014-09-22 07:22:00,
2014-09-22 00:33:00,65.0,48.0,-100.00,NW,319,10.0,17.0,55,0.00,,,0.00,0.000000,,2014-09-22 07:33:00,
2014-09-22 00:52:00,66.0,48.0,-100.00,WNW,303,7.0,13.0,52,0.00,,,0.00,0.000000,,2014-09-22 07:52:00,
2014-09-22 01:02:00,66.0,48.0,-100.00,WNW,303,7.0,13.0,52,0.00,,,0.00,0.000000,,2014-09-22 08:02:00,
2014-09-22 01:12:00,66.0,48.0,-100.00,WNW,303,7.0,13.0,52,0.00,,,0.00,0.000000,,2014-09-22 08:12:00,
2014-09-22 01:22:00,66.0,48.0,-100.00,WNW,303,7.0,13.0,52,0.00,,,0.00,0.000000,,2014-09-22 08:22:00,
2014-09-22 01:32:00,66.0,48.0,-100.00,WNW,303,7.0,13.0,52,0.00,,,0.00,0.000000,,2014-09-22 08:32:00,
2014-09-22 01:52:00,65.0,45.0,-100.00,NW,316,6.0,10.0,48,0.00,,,0.00,0.000000,,2014-09-22 08:52:00,
2014-09-22 02:02:00,65.0,45.0,-100.00,NW,316,6.0,10.0,48,0.00,,,0.00,0.000000,,2014-09-22 09:02:00,
2014-09-22 02:12:00,65.0,45.0,-100.00,NW,316,6.0,10.0,48,0.00,,,0.00,0.000000,,2014-09-22 09:12:00,
2014-09-22 02:22:00,65.0,45.0,-100.00,NW,316,6.0,10.0,48,0.00,,,0.00,0.000000,,2014-09-22 09:22:00,
2014-09-22 02:33:00,65.0,45.0,-100.00,NW,316,6.0,10.0,48,0.00,,,0.00,0.000000,,2014-09-22 09:33:00,
2014-09-22 02:54:00,63.0,41.0,-100.00,West,275,3.0,11.0,44,0.00,,,0.00,0.000000,,2014-09-22 09:54:00,
2014-09-22 03:04:00,63.0,41.0,-100.00,West,275,3.0,11.0,44,0.00,,,0.00,0.000000,,2014-09-22 10:04:00,
2014-09-22 03:13:00,63.0,41.0,-100.00,West,275,3.0,11.0,44,0.00,,,0.00,0.000000,,2014-09-22 10:13:00,
2014-09-22 03:23:00,63.0,41.0,-100.00,West,275,3.0,11.0,44,0.00,,,0.00,0.000000,,2014-09-22 10:23:00,
2014-09-22 03:33:00,63.0,41.0,-100.00,West,275,3.0,11.0,44,0.00,,,0.00,0.000000,,2014-09-22 10:33:00,
2014-09-22 03:54:00,64.0,45.0,-100.00,WNW,299,5.0,9.0,51,0.00,,,0.00,0.000000,,2014-09-22 10:54:00,
2014-09-22 04:03:00,64.0,45.0,-100.00,WNW,299,5.0,9.0,51,0.00,,,0.00,0.000000,,2014-09-22 11:03:00,
2014-09-22 04:13:00,64.0,45.0,-100.00,WNW,299,5.0,9.0,51,0.00,,,0.00,0.000000,,2014-09-22 11:13:00,
2014-09-22 04:23:00,64.0,45.0,-100.00,WNW,299,5.0,9.0,51,0.00,,,0.00,0.000000,,2014-09-22 11:23:00,
2014-09-22 04:32:00,64.0,45.0,-100.00,WNW,299,5.0,9.0,51,0.00,,,0.00,0.000000,,2014-09-22 11:32:00,
2014-09-22 04:52:00,64.0,45.0,-100.00,WNW,284,6.0,9.0,51,0.00,,,0.00,0.000000,,2014-09-22 11:52:00,
2014-09-22 05:02:00,64.0,45.0,-100.00,WNW,284,6.0,9.0,51,0.00,,,0.00,0.000000,,2014-09-22 12:02:00,
2014-09-22 05:12:00,64.0,45.0,-100.00,WNW,284,6.0,9.0,51,0.00,,,0.00,0.000000,,2014-09-22 12:12:00,
2014-09-22 05:22:00,64.0,45.0,-100.00,WNW,284,6.0,9.0,51,0.00,,,0.00,0.000000,,2014-09-22 12:22:00,
2014-09-22 05:32:00,64.0,45.0,-100.00,WNW,284,6.0,9.0,51,0.00,,,0.00,0.000000,,2014-09-22 12:32:00,
2014-09-22 05:53:00,64.0,39.0,-100.00,WNW,291,7.0,10.0,40,0.00,,,0.00,0.000000,,2014-09-22 12:53:00,
2014-09-22 06:02:00,64.0,39.0,-100.00,WNW,291,7.0,10.0,40,0.00,,,0.00,0.000000,,2014-09-22 13:02:00,
2014-09-22 06:11:00,64.0,39.0,-100.00,WNW,291,7.0,10.0,40,0.00,,,0.00,0.000000,,2014-09-22 13:11:00,
2014-09-22 06:22:00,64.0,39.0,-100.00,WNW,291,7.0,10.0,40,0.00,,,0.00,0.000000,,2014-09-22 13:22:00,
2014-09-22 06:32:00,64.0,39.0,-100.00,WNW,291,7.0,10.0,40,0.00,,,0.00,0.000000,,2014-09-22 13:32:00,
2014-09-22 06:52:00,62.0,40.0,-100.00,NW,304,6.0,11.0,45,0.00,,,0.00,0.000000,,2014-09-22 13:52:00,
2014-09-22 07:02:00,62.0,40.0,-100.00,NW,304,6.0,11.0,45,0.00,,,0.00,0.000000,,2014-09-22 14:02:00,
2014-09-22 07:12:00,62.0,40.0,-100.00,NW,304,6.0,11.0,45,0.00,,,0.00,0.000000,,2014-09-22 14:12:00,
2014-09-22 07:22:00,62.0,40.0,-100.00,NW,304,6.0,11.0,45,0.00,,,0.00,0.000000,,2014-09-22 14:22:00,
2014-09-22 07:32:00,62.0,40.0,-100.00,NW,304,6.0,11.0,45,0.00,,,0.00,0.000000,,2014-09-22 14:32:00,
2014-09-22 07:34:00,61.0,41.0,-100.00,NW,315,6.0,11.0,47,0.00,,,0.00,11.000000,,2014-09-22 14:34:00,
2014-09-22 07:52:00,61.0,41.0,-100.00,NW,315,6.0,11.0,47,0.00,,,0.00,11.000000,,2014-09-22 14:52:00,
2014-09-22 08:02:00,61.0,41.0,-100.00,NW,315,6.0,11.0,47,0.00,,,0.00,11.000000,,2014-09-22 15:02:00,
2014-09-22 08:12:00,61.0,41.0,-100.00,NW,315,6.0,11.0,47,0.00,,,0.00,11.000000,,2014-09-22 15:12:00,
2014-09-22 08:22:00,61.0,41.0,-100.00,NW,315,6.0,11.0,47,0.00,,,0.00,11.000000,,2014-09-22 15:22:00,
2014-09-22 08:34:00,65.0,43.0,-100.00,NW,311,5.0,12.0,45,0.00,,,0.00,185.000000,,2014-09-22 15:34:00,
2014-09-22 08:55:00,65.0,43.0,-100.00,NW,311,5.0,12.0,45,0.00,,,0.00,185.000000,,2014-09-22 15:55:00,
2014-09-22 09:04:00,65.0,43.0,-100.00,NW,311,5.0,12.0,45,0.00,,,0.00,185.000000,,2014-09-22 16:04:00,
2014-09-22 09:23:00,65.0,43.0,-100.00,NW,311,5.0,12.0,45,0.00,,,0.00,185.000000,,2014-09-22 16:23:00,
2014-09-22 09:53:00,66.0,45.0,-100.00,NW,321,3.0,9.0,46,0.00,,,0.00,191.000000,,2014-09-22 16:53:00,
2014-09-22 10:03:00,66.0,45.0,-100.00,NW,321,3.0,9.0,46,0.00,,,0.00,191.000000,,2014-09-22 17:03:00,
2014-09-22 10:20:00,66.0,-99.9,-100.00,NW,321,3.0,9.0,46,0.00,,,0.00,191.000000,,2014-09-22 17:20:00,
2014-09-22 10:33:00,66.0,45.0,-100.00,NW,321,3.0,9.0,46,0.00,,,0.00,191.000000,,2014-09-22 17:33:00,
2014-09-22 10:53:00,68.0,47.0,-100.00,SSW,197,5.0,8.0,47,0.00,,,0.00,296.000000,,2014-09-22 17:53:00,
2014-09-22 11:02:00,68.0,47.0,-100.00,SSW,197,5.0,8.0,47,0.00,,,0.00,296.000000,,2014-09-22 18:02:00,
2014-09-22 11:12:00,68.0,47.0,-100.00,SSW,197,5.0,8.0,47,0.00,,,0.00,296.000000,,2014-09-22 18:12:00,
2014-09-22 11:22:00,68.0,47.0,-100.00,SSW,197,5.0,8.0,47,0.00,,,0.00,296.000000,,2014-09-22 18:22:00,
2014-09-22 11:32:00,68.0,47.0,-100.00,SSW,197,5.0,8.0,47,0.00,,,0.00,296.000000,,2014-09-22 18:32:00,
2014-09-22 11:52:00,72.0,46.0,-100.00,South,173,6.0,8.0,40,0.00,,,0.00,575.000000,,2014-09-22 18:52:00,
2014-09-22 12:02:00,72.0,46.0,-100.00,South,173,6.0,8.0,40,0.00,,,0.00,575.000000,,2014-09-22 19:02:00,
2014-09-22 12:12:00,72.0,46.0,-100.00,South,173,6.0,8.0,40,0.00,,,0.00,575.000000,,2014-09-22 19:12:00,
2014-09-22 12:22:00,72.0,46.0,-100.00,South,173,6.0,8.0,40,0.00,,,0.00,575.000000,,2014-09-22 19:22:00,
2014-09-22 12:32:00,72.0,46.0,-100.00,South,173,6.0,8.0,40,0.00,,,0.00,575.000000,,2014-09-22 19:32:00,
2014-09-22 12:53:00,75.0,46.0,-100.00,South,189,5.0,9.0,36,0.00,,,0.00,670.000000,,2014-09-22 19:53:00,
2014-09-22 13:02:00,75.0,46.0,-100.00,South,189,5.0,9.0,36,0.00,,,0.00,670.000000,,2014-09-22 20:02:00,
2014-09-22 13:13:00,75.0,46.0,-100.00,South,189,5.0,9.0,36,0.00,,,0.00,670.000000,,2014-09-22 20:13:00,
2014-09-22 13:23:00,75.0,46.0,-100.00,South,189,5.0,9.0,36,0.00,,,0.00,670.000000,,2014-09-22 20:23:00,
2014-09-22 13:32:00,75.0,46.0,-100.00,South,189,5.0,9.0,36,0.00,,,0.00,670.000000,,2014-09-22 20:32:00,
2014-09-22 13:52:00,76.0,43.0,-100.00,South,184,6.0,16.0,31,0.00,,,0.00,584.000000,,2014-09-22 20:52:00,
2014-09-22 14:02:00,76.0,43.0,-100.00,South,184,6.0,16.0,31,0.00,,,0.00,584.000000,,2014-09-22 21:02:00,
2014-09-22 14:12:00,76.0,43.0,-100.00,South,184,6.0,16.0,31,0.00,,,0.00,584.000000,,2014-09-22 21:12:00,
2014-09-22 14:22:00,76.0,43.0,-100.00,South,184,6.0,16.0,31,0.00,,,0.00,584.000000,,2014-09-22 21:22:00,
2014-09-22 14:33:00,76.0,43.0,-100.00,South,184,6.0,16.0,31,0.00,,,0.00,584.000000,,2014-09-22 21:33:00,
2014-09-22 14:54:00,79.0,43.0,-100.00,South,191,6.0,12.0,28,0.00,,,0.00,613.000000,,2014-09-22 21:54:00,
2014-09-22 15:03:00,79.0,43.0,-100.00,South,191,6.0,12.0,28,0.00,,,0.00,613.000000,,2014-09-22 22:03:00,
2014-09-22 15:13:00,79.0,43.0,-100.00,South,191,6.0,12.0,28,0.00,,,0.00,613.000000,,2014-09-22 22:13:00,
2014-09-22 15:23:00,79.0,43.0,-100.00,South,191,6.0,12.0,28,0.00,,,0.00,613.000000,,2014-09-22 22:23:00,
2014-09-22 15:33:00,79.0,43.0,-100.00,South,191,6.0,12.0,28,0.00,,,0.00,613.000000,,2014-09-22 22:33:00,
2014-09-22 15:53:00,78.0,42.0,-100.00,SW,220,10.0,19.0,28,0.00,,,0.00,411.000000,,2014-09-22 22:53:00,
2014-09-22 16:03:00,78.0,42.0,-100.00,SW,220,10.0,19.0,28,0.00,,,0.00,411.000000,,2014-09-22 23:03:00,
2014-09-22 16:12:00,78.0,42.0,-100.00,SW,220,10.0,19.0,28,0.00,,,0.00,411.000000,,2014-09-22 23:12:00,
2014-09-22 16:22:00,78.0,42.0,-100.00,SW,220,10.0,19.0,28,0.00,,,0.00,411.000000,,2014-09-22 23:22:00,
2014-09-22 16:32:00,78.0,42.0,-100.00,SW,220,10.0,19.0,28,0.00,,,0.00,411.000000,,2014-09-22 23:32:00,
2014-09-22 16:52:00,75.0,42.0,-100.00,NW,306,8.0,20.0,31,0.00,,,0.00,309.000000,,2014-09-22 23:52:00,
2014-09-22 17:02:00,75.0,42.0,-100.00,NW,306,8.0,20.0,31,0.00,,,0.00,309.000000,,2014-09-23 00:02:00,
2014-09-22 17:12:00,75.0,42.0,-100.00,NW,306,8.0,20.0,31,0.00,,,0.00,309.000000,,2014-09-23 00:12:00,
2014-09-22 17:21:00,75.0,42.0,-100.00,NW,306,8.0,20.0,31,0.00,,,0.00,309.000000,,2014-09-23 00:21:00,
2014-09-22 17:32:00,75.0,42.0,-100.00,NW,306,8.0,20.0,31,0.00,,,0.00,309.000000,,2014-09-23 00:32:00,
2014-09-22 17:52:00,70.0,43.0,-100.00,WNW,293,10.0,19.0,37,0.00,,,0.00,70.000000,,2014-09-23 00:52:00,
2014-09-22 18:02:00,70.0,43.0,-100.00,WNW,293,10.0,19.0,37,0.00,,,0.00,70.000000,,2014-09-23 01:02:00,
2014-09-22 18:12:00,70.0,43.0,-100.00,WNW,293,10.0,19.0,37,0.00,,,0.00,70.000000,,2014-09-23 01:12:00,
2014-09-22 18:22:00,70.0,43.0,-100.00,WNW,293,10.0,19.0,37,0.00,,,0.00,70.000000,,2014-09-23 01:22:00,
2014-09-22 18:32:00,70.0,43.0,-100.00,WNW,293,10.0,19.0,37,0.00,,,0.00,70.000000,,2014-09-23 01:32:00,
2014-09-22 18:52:00,67.0,43.0,-100.00,WNW,289,10.0,19.0,41,0.00,,,0.00,60.000000,,2014-09-23 01:52:00,
2014-09-22 19:02:00,67.0,43.0,-100.00,WNW,289,10.0,19.0,41,0.00,,,0.00,60.000000,,2014-09-23 02:02:00,
2014-09-22 19:12:00,67.0,43.0,-100.00,WNW,289,10.0,19.0,41,0.00,,,0.00,60.000000,,2014-09-23 02:12:00,
2014-09-22 19:22:00,67.0,43.0,-100.00,WNW,289,10.0,19.0,41,0.00,,,0.00,60.000000,,2014-09-23 02:22:00,
2014-09-22 19:32:00,67.0,43.0,-100.00,WNW,289,10.0,19.0,41,0.00,,,0.00,60.000000,,2014-09-23 02:32:00,
2014-09-22 19:52:00,65.0,40.0,-100.00,NW,321,6.0,17.0,40,0.00,,,0.00,5.000000,,2014-09-23 02:52:00,
2014-09-22 20:02:00,65.0,40.0,-100.00,NW,321,6.0,17.0,40,0.00,,,0.00,5.000000,,2014-09-23 03:02:00,